Regional Weather Roundup
Issued by NWS

Home | Current Version | Previous Version | Text Only | Print | Product List | Glossary Off
Versions: 1 2 3 4 5 6 7 8 9 10 11 12 13 14 15 16 17 18 19 20 21 22 23 24 25 26 27 28 29 30 31 32 33 34 35 36 37 38 39 40 41 42 43 44 45 46 47 48 49 50

000
ASUS43 KFSD 280402
RWRSD

WEATHER ROUNDUP FOR SOUTH DAKOTA
NATIONAL WEATHER SERVICE SIOUX FALLS SD
1000 PM CST TUE JAN 27 2015

NOTE: "FAIR" INDICATES FEW OR NO CLOUDS BELOW 12,000 FEET WITH NO
SIGNIFICANT WEATHER AND/OR OBSTRUCTIONS TO VISIBILITY.


SDZ001>005-009-010-012>017-280500-
NORTHWEST AND NORTH CENTRAL SOUTH DAKOTA

CITY           SKY/WX    TMP DP  RH WIND       PRES   REMARKS
BUFFALO          N/A     49  31  49 W6        29.75F
FAITH            N/A     49  31  49 SE10      29.80F
MOBRIDGE       PTCLDY    37  33  85 SE9       29.79S
$$

SDZ012>016-024>037-041>051-057-063-072>074-280500-
SOUTHWEST AND SOUTH CENTRAL SOUTH DAKOTA

CITY           SKY/WX    TMP DP  RH WIND       PRES   REMARKS
RAPID CTY ARPT MOCLDY    50  27  40 SW6       29.82F
PIERRE         PTCLDY    41  34  76 E3        29.81S
CUSTER         PTCLDY    48  25  40 W10       29.93S
PHILIP         CLOUDY    38  28  67 CALM      29.79F
PINE RIDGE     MOCLDY    36  28  73 SW5       29.89S
WINNER         FAIR      46  35  65 S10       29.83F
$$

SDZ004>011-016>023-039-040-280500-
NORTHEAST SOUTH DAKOTA

CITY           SKY/WX    TMP DP  RH WIND       PRES   REMARKS
ABERDEEN       CLEAR     35  32  88 S13       29.87F WCI  26
WATERTOWN      CLEAR     34  32  92 S16       29.89F WCI  24
SISSETON         N/A     32  32 100 S14       29.93F WCI  22
$$

SDZ017-020-022-023-036>040-048>070-280500-
SOUTHEAST SOUTH DAKOTA

CITY           SKY/WX    TMP DP  RH WIND       PRES   REMARKS
SIOUX FALLS    CLEAR     37  32  82 SE13      29.95F
HURON          CLEAR     36  32  85 S12       29.87F
MITCHELL       CLEAR     38  33  82 SE15      29.89F
YANKTON        CLEAR     37  30  75 E7        29.94F
$$

ABBREVIATIONS USED IN REMARKS
   TC - TEMPERATURE IN CELSIUS
  WCI - WIND CHILL INDEX
   HX - HEAT INDEX
  VSB - VISIBILITY




USA.gov is the U.S. government's official web portal to all federal, state and local government web resources and services.